Regional Weather Roundup
Issued by NWS Wakefield, VA

Home | Current Version | Previous Version | Graphics & Text | Print | Product List | Glossary On
Versions: 1 2 3 4 5 6 7 8 9 10 11 12 13 14 15 16 17 18 19 20 21 22 23 24 25 26 27
000
ASUS41 KAKQ 290815
RWRAKQ

REGIONAL WEATHER ROUNDUP
NATIONAL WEATHER SERVICE WAKEFIELD VA
400 AM EDT MON AUG 29 2016

Note: "fair" indicates few or no clouds below 12,000 feet with no
significant weather and/or obstructions to visibility. * = Denotes
station may not report precipitation (e.g., rain,snow,etc.),
thunder or fog.

VAZ042-051-052>054-056-290900-
NORTHERN VIRGINIA

CITY           SKY/WX    TMP DP  RH WIND       PRES   REMARKS
WASH NATIONAL  PTCLDY    74  67  78 S8        30.14F
DULLES         MOCLDY    71  66  84 S3        30.13F
FORT BELVOIR   CLEAR     66  65  95 CALM      30.13F
QUANTICO       CLEAR     71  68  90 W6        30.14F
FREDERICKSBRG* PTCLDY    68  68 100 CALM      30.13F
STAFFORD*      CLEAR     62  62  98 CALM      30.17F FOG
WARRENTON      CLEAR     65  60  86 S3        30.14F HAZE
CULPEPER*      CLEAR     66  66 100 CALM      30.15F FOG
MANASSAS*      CLEAR     66  64  94 SE5       30.14F
LEESBURG*      CLEAR     68  68 100 SW3       30.14F
WINCHESTER     CLEAR     70  64  83 W3        30.15S
FRONT ROYAL*   FAIR      68  64  88 CALM      30.14S
LURAY*         FAIR     N/A N/A N/A SW3       30.16F
$$

VAZ048-049-060>072-079>083-290900-
CENTRAL AND SOUTH CENTRAL VIRGINIA

CITY           SKY/WX    TMP DP  RH WIND       PRES   REMARKS
RICHMOND       CLEAR     67  65  93 CALM      30.14F
CHESTERFIELD*  FAIR      64  52  63 CALM      30.16F
PETERSBURG*    CLOUDY   N/A N/A N/A CALM      30.15F
HANOVER        CLEAR     64  62  93 CALM      30.16F FOG
TAPPAHANNOCK*  CLEAR     64  64 100 CALM      30.15F FOG
QUINTON*       FAIR      66  65  99 CALM      30.15F
CHARLOTTSVILLE CLEAR     69  66  90 CALM      30.17F
GORDONSVILLE*  NOT AVBL
ORANGE*          N/A     64  64 100 CALM      30.17F
LOUISA*          N/A     64  64 100 CALM      30.15F FOG
BUMPASS*       FAIR      64  64 100 CALM      30.15F
FARMVILLE*       N/A    N/A N/A N/A CALM      30.15F FOG
CREWE*         FAIR      65  65 100 CALM      30.16F
FORT PICKETT*  NOT AVBL
CHASE CITY*    FAIR      69  67  94 CALM      30.16S
CLARKSVILLE*   FAIR      72  72 100 CALM      30.15F
SOUTH HILL*    PTCLDY    67  67 100 N5        30.20F
LAWRENCEVILLE* FAIR      69  69 100 N5        30.14F
EMPORIA*       CLOUDY    68  68 100 N3        30.14F
$$

VAZ088>098-290900-
SOUTHEAST VIRGINIA

CITY           SKY/WX    TMP DP  RH WIND       PRES   REMARKS
NORFOLK        CLOUDY    77  73  87 NE10      30.11F
VIRGINIA BEACH CLOUDY    83  73  72 NE12G20   30.10F
NORFOLK NAVAL  MOCLDY    77  71  82 NE6       30.12F
WEST POINT*    CLEAR     64  63  97 CALM      30.16F
SALUDA*        FAIR      68  67  97 CALM      30.14S
NEWPORT NEWS   MOCLDY    71  70  96 N5        30.13S
LANGLEY AFB    PTCLDY    75  71  86 N8        30.11F
FORT EUSTIS    PTCLDY    72  70  93 N6        30.11S
WILLIAMSBURG*  CLEAR     72  70  94 CALM      30.15R
HR EXEC AP*    PTSUNNY   75  72  88 N3        30.14S
FRANKLIN*      CLOUDY    69  68  96 N3        30.12F
US460-WAKEFLD  CLEAR     67  65  93 CALM      30.13F
$$

VAZ020-022-025-037-045-290900-
WEST CENTRAL AND SOUTHWEST VIRGINIA

CITY           SKY/WX    TMP DP  RH WIND       PRES   REMARKS
STAUNTON*      CLEAR     64  63  96 CALM      30.20F
WAYNESBORO*    FAIR      65  63  93 CALM      30.20F
HOT SPRINGS VA MOCLDY    67  58  74 SE5       30.30F
LYNCHBURG      CLEAR     67  65  93 CALM      30.20F
DANVILLE       CLOUDY    68  67  96 CALM      30.17S
SOUTH BOSTON*    N/A     67  66  95 CALM      30.16F
MARTINSVILLE   PTCLDY    64  63  97 CALM      30.21F
ROANOKE        CLEAR     67  63  87 CALM      30.22F
BLACKSBURG     CLEAR     63  62  97 CALM      30.28F
DUBLIN*        CLEAR     63  62  98 S5        30.26F
MARION*        CLEAR     62  61  96 CALM      30.29F
HILLSVILLE*    CLEAR     62  62 100 CALM      30.26S
RICHLANDS*     FAIR      71  62  74 E3        30.25S
WISE*          FOG       72  70  94 CALM      30.26F VSB 3/4
ABINGDON*      CLEAR     71  65  83 E6        30.23S
$$

MDZ021>025-VAZ099-100-290900-
SOUTHERN MARYLAND AND THE DELMARVA PENINSULA

CITY           SKY/WX    TMP DP  RH WIND       PRES   REMARKS
PATUXENT RIVER CLEAR     68  65  90 CALM      30.12F
BAY BRIDGE APT CLEAR     73  68  83 CALM      30.13F
LEONARDTOWN    CLEAR     64  63  94 CALM      30.15F
DOVER          CLEAR     68  68 100 CALM      30.13F
GEORGETOWN     CLEAR     65  63  93 CALM      30.14F
EASTON         CLEAR     68  68 100 CALM      30.17F
CAMBRIDGE      CLEAR     63  61  94 CALM      30.13F
SALISBURY      CLEAR     66  65  96 CALM      30.13F
OCEAN CITY     PTCLDY    67  64  90 N6        30.13F
WALLOPS ISLAND CLEAR     69  55  60 N3        30.14F
ACCOMACK*      CLEAR     67  64  89 NE3       30.13F
$$

NCZ012>017-030>032-290900-
NORTH CENTRAL AND EASTERN NORTH CAROLINA

CITY           SKY/WX    TMP DP  RH WIND       PRES   REMARKS
ROANOKE RAPIDS LGT RAIN  70  68  94 N3        30.12F
RALEIGH        CLOUDY    73  69  87 N6        30.14F
ELIZABETH CITY CLOUDY    76  73  91 N9        30.09F
AHOSKIE*       CLOUDY    70  69  96 CALM      30.11F
EDENTON*       CLOUDY   N/A N/A N/A N5        30.10F
CURRITUCK*       N/A     79  78  96 N6        30.10S
KILL DEVIL HLS CLOUDY    78  78 100 CALM      30.07F
MANTEO         CLOUDY    78  78  99 NE7       30.08F
CAPE HATTERAS  CLOUDY    78  73  84 NE5       30.07S
TARBORO*       FAIR      72  71  95 CALM      30.11F
GOLDSBORO      LGT RAIN  73  73 100 N8        30.08F
WASHINGTON     LGT RAIN  73  73  98 NE5       30.09F
GREENVILLE     MOCLDY    73  73 100 N5        30.11F
NEW BERN       CLOUDY    76  74  93 N8        30.09F
WILMINGTON     CLOUDY    76  75  97 NE10      30.07F
$$

VAZ048-290900-
ELSEWHERE

CITY           SKY/WX    TMP DP  RH WIND       PRES   REMARKS
HARRISBURG PA  CLOUDY    74  68  81 S6        30.14R
BALTIMORE      PTCLDY    70  65  84 CALM      30.12F
ANNAPOLIS      CLEAR     75  69  81 CALM      30.12F
ANDREWS AFB    CLEAR     68  65  90 S5        30.13F
PHILADELPHIA   PTCLDY    73  69  87 S6        30.13F
HENDERSON NC   CLOUDY    68  66  94 CALM      30.15F
GREENSBORO     CLOUDY    73  69  87 NE6       30.16S
ROCKY MOUNT    PTCLDY    72  71  97 N3        30.12F
$$

VAZ100-290900-
MARINE

STATION/POSITION TIME  TEMP    WIND        PRES    WAVE   SWELL
                       AIR SEA DIR/SP/G            HT/PER HT/PER
                 (UTC) (F)     (DEG/KT/KT) (MB)    (FT/S) (FT/S)
BRANDYWINE LGT   0700   75     200/  2/  3   N/A
CAPE MAY NJ      0700   70 73   CALM  /  1 1020.6F
LEWES DE         0700   72 75   CALM  /  1 1021.0F
OCEAN-CITY-INLET 0700   72 76  360/  4/  5 1021.4F
WACHAPREAGUE VA  0700   71 82  350/  3/  4 1020.5F
THOMAS POINT MD  0800   77 82  180/  9/ 10 1021.4F
GOOSES REEF MD   0800   77 83  140/  4/  6 1020.9F   0
COVE POINT MD    0700   75     150/  5/  6 1021.4F
SOLOMONS ISLAND  0700   76 84   60/  3/  4   N/A
PINEY POINT MD   0700           70/  2/  3   N/A
POTOMAC MD       0800   78 83   90/  4/  6 1019.2F   1
CAMBRIDGE MD     0700   72 84  160/  2/  3 1020.1F
LEWISETTA VA     0700   78 84   80/  4/  6 1020.6F
RAPPAHANNOCK LGT 0700           50/ 12/ 13 1020.9F
STINGRAY PT      0700   78 83   10/  8/ 10 1020.8F   1/ 2
YORK RVR RNG VA  0700   78      60/ 11/ 12 1019.8F
YORKTOWN VA      0700   76 83  360/  4/  6 1020.1F
JAMESTOWN VA     0800   72 85  360/  6/  8   N/A     0
DOMINION TERM VA 0700   77      50/  1/  3 1020.1F
KIPTOPEKE VA     0700      81   10/  6/  7   N/A
CHES BAY BRIDGE  0700   78 81   10/ 11/ 12 1019.8F
CAPE HENRY VA    0700   77      20/ 12/ 14   N/A
WILLOUBY STN VA  0700   78      30/ 12/ 13   N/A
CAPE HENRY BUOY  0712      80                N/A     4/ 6
1ST LANDING BUOY 0800   78 77   60/ 12/ 14 1019.3F   3/ 4
CAPE CHARLES BUO 0726      79                N/A     4/ 5   2/14
OFFSHORE WE BUOY 0721      80                N/A     4/ 5   2/13
64NM E OF VA BCH 0750   77 81   10/ 10/ 14 1018.8F   3/ 8   3/ 8
DUCK PIER NC     0700   79 78   30/  9/ 10 1018.5F
44100 DUCK FRF   0705      80                N/A     4/ 6
44056 DUCK FRF   0711      79                N/A     4/ 6   2/14
OREGON INLET NC  0700   80 81   10/  7/ 10 1018.6F
HATTERAS NC      0700   79 82   70/  4/  6 1018.0F
DIAMOND SHLS NC  0750   83 84   80/ 12/ 14 1017.7F   5/ 8   5/ 8
CAPE LOOKOUT NC  0800   79     360/  6/  7 1017.5F
$$




USA.gov is the U.S. government's official web portal to all federal, state and local government web resources and services.